Avalon Airport, Australia

4:34 AM AEDT on February 23, 2017 (GMT +1100)
Avalon

Weather History for YMAV - July, 2013

Change the Weather History Date:

Tuesday, July 2, 2013

  Actual Average Record
Temperature  
Mean Temperature 58 °F -  
Max Temperature 64 °F - - ()
Min Temperature 53 °F - - ()
Degree Days  
Heating Degree Days 6    
Growing Degree Days 8 (Base 50)    
Moisture  
Dew Point 47 °F    
Average Humidity 66    
Maximum Humidity 82    
Minimum Humidity 42    
Precipitation  
Precipitation 0.00 in - - ()
Sea Level Pressure  
Sea Level Pressure 30.14 in    
Wind  
Wind Speed 13 mph ()    
Max Wind Speed 24 mph    
Max Gust Speed 33 mph    
Visibility 6.2 miles    
Events      
T = Trace of Precipitation, MM = Missing Value Source: Averaged Metar Reports

Daily Weather History Graph

Daily Weather History Graph

Search for Another Location

Airport or City:

Trip Planner

Search our weather history database for the weather conditions in past years. The results will help you decide how hot, cold, wet, or windy it might be!

Date:

Astronomy

Jul. 02, 2013 Rise Set
Actual Time 7:38 AM AEST 5:13 PM AEST
Civil Twilight 7:09 AM AEST 5:42 PM AEST
Nautical Twilight 6:36 AM AEST 6:15 PM AEST
Astronomical Twilight 6:04 AM AEST 6:47 PM AEST
Moon 1:59 AM AEST (7/2) 12:57 PM AEST (7/2)
Length of Visible Light 10h 33m
Length of Day
9h 34m
Waning Crescent, 32% of the Moon is Illuminated
Jul 2
Waning Crescent
Jul 8
New
Jul 16
First Quarter
Jul 23
Full
Jul 30
Last Quarter

Hourly Weather History & Observations

Time (AEST) Temp. Dew Point Humidity Pressure Visibility Wind Dir Wind Speed Gust Speed Precip Events Conditions
12:00 AM 57 °F 49 °F 67% 30.17 in - NW 11.5 mph - -   Overcast
12:00 AM 57.2 °F 48.2 °F 72% 30.15 in 6.2 mi NW 11.5 mph - N/A   Overcast
12:30 AM 57.2 °F 48.2 °F 72% 30.15 in 6.2 mi NNW 12.7 mph - N/A   Mostly Cloudy
1:00 AM 55.4 °F 48.2 °F 77% 30.12 in 6.2 mi NNW 13.8 mph - N/A   Scattered Clouds
1:30 AM 55.4 °F 48.2 °F 77% 30.12 in 6.2 mi NNW 12.7 mph - N/A   Unknown
2:00 AM 55.4 °F 48.2 °F 77% 30.12 in 6.2 mi NNW 12.7 mph - N/A   Scattered Clouds
2:30 AM 55.4 °F 48.2 °F 77% 30.12 in 6.2 mi NNW 12.7 mph - N/A   Mostly Cloudy
3:00 AM 54 °F 47 °F 72% 30.14 in - NNW 13.8 mph - -  
3:00 AM 55.4 °F 48.2 °F 77% 30.12 in 6.2 mi NNW 13.8 mph - N/A   Unknown
3:30 AM 55.4 °F 48.2 °F 77% 30.12 in 6.2 mi NNW 13.8 mph - N/A   Mostly Cloudy
4:00 AM 55.4 °F 48.2 °F 77% 30.12 in 6.2 mi NNW 12.7 mph - N/A   Overcast
4:30 AM 55.4 °F 48.2 °F 77% 30.12 in 6.2 mi NNW 12.7 mph - N/A   Overcast
5:00 AM 57.2 °F 48.2 °F 72% 30.12 in 6.2 mi NW 15.0 mph - N/A   Mostly Cloudy
5:30 AM 57.2 °F 48.2 °F 72% 30.12 in 6.2 mi NW 16.1 mph - N/A   Scattered Clouds
6:00 AM 55 °F 48 °F 71% 30.15 in - NNW 11.5 mph - -  
6:00 AM 55.4 °F 48.2 °F 77% 30.12 in 6.2 mi NNW 11.5 mph - N/A   Scattered Clouds
6:30 AM 55.4 °F 48.2 °F 77% 30.15 in 6.2 mi NW 12.7 mph - N/A   Scattered Clouds
7:00 AM 53.6 °F 48.2 °F 82% 30.15 in 6.2 mi NW 12.7 mph - N/A   Scattered Clouds
7:30 AM 53.6 °F 48.2 °F 82% 30.15 in 6.2 mi NNW 12.7 mph - N/A   Unknown
8:00 AM 53.6 °F 48.2 °F 82% 30.15 in 6.2 mi NNW 15.0 mph - N/A   Unknown
8:30 AM 55.4 °F 48.2 °F 77% 30.15 in 6.2 mi NNW 15.0 mph - N/A   Unknown
9:00 AM 57 °F 49 °F 65% 30.18 in - NNW 16.1 mph - -  
9:00 AM 57.2 °F 48.2 °F 72% 30.15 in 6.2 mi NNW 16.1 mph - N/A   Unknown
9:30 AM 59.0 °F 48.2 °F 67% 30.18 in 6.2 mi NNW 15.0 mph - N/A   Unknown
10:00 AM 60.8 °F 48.2 °F 63% 30.18 in 6.2 mi NNW 17.3 mph - N/A   Unknown
10:30 AM 62.6 °F 48.2 °F 59% 30.18 in 6.2 mi NNW 17.3 mph - N/A   Scattered Clouds
11:00 AM 62.6 °F 48.2 °F 59% 30.18 in 6.2 mi NW 15.0 mph - N/A   Scattered Clouds
11:11 AM 62.6 °F 48.2 °F 59% 30.15 in 6.2 mi NW 17.3 mph 28.8 mph N/A   Scattered Clouds
11:30 AM 62.6 °F 48.2 °F 59% 30.15 in 6.2 mi NW 16.1 mph - N/A   Scattered Clouds
12:00 PM 62 °F 47 °F 49% 30.16 in - NW 19.6 mph - -  
12:00 PM 62.6 °F 48.2 °F 59% 30.15 in 6.2 mi NW 19.6 mph - N/A   Scattered Clouds
12:30 PM 64.4 °F 48.2 °F 56% 30.12 in 6.2 mi NW 19.6 mph - N/A   Scattered Clouds
1:00 PM 64.4 °F 48.2 °F 56% 30.12 in 6.2 mi NW 21.9 mph - N/A   Scattered Clouds
1:29 PM 64.4 °F 46.4 °F 52% 30.12 in 6.2 mi WNW 19.6 mph 31.1 mph N/A   Mostly Cloudy
1:31 PM 64.4 °F 44.6 °F 49% 30.12 in 6.2 mi WNW 20.7 mph 33.4 mph N/A   Mostly Cloudy
2:00 PM 64.4 °F 46.4 °F 52% 30.09 in 6.2 mi WNW 24.2 mph - N/A   Mostly Cloudy
2:11 PM 64.4 °F 44.6 °F 49% 30.09 in 6.2 mi NW 19.6 mph 31.1 mph N/A   Overcast
2:30 PM 64.4 °F 46.4 °F 52% 30.09 in 6.2 mi NW 19.6 mph - N/A   Mostly Cloudy
3:00 PM 63 °F 46 °F 42% 30.12 in - NW 18.4 mph - -   Overcast
3:00 PM 62.6 °F 46.4 °F 55% 30.09 in 6.2 mi NW 18.4 mph - N/A   Mostly Cloudy
3:30 PM 62.6 °F 46.4 °F 55% 30.09 in 6.2 mi WNW 20.7 mph - N/A   Mostly Cloudy
4:00 PM 62.6 °F 46.4 °F 55% 30.12 in 6.2 mi NW 18.4 mph - N/A   Scattered Clouds
4:30 PM 60.8 °F 46.4 °F 59% 30.12 in 6.2 mi NW 13.8 mph - N/A   Mostly Cloudy
5:00 PM 60.8 °F 46.4 °F 59% 30.12 in 6.2 mi NW 12.7 mph - N/A   Mostly Cloudy
5:30 PM 59.0 °F 46.4 °F 63% 30.12 in 6.2 mi NNW 9.2 mph - N/A   Mostly Cloudy
6:00 PM 59 °F 47 °F 54% 30.14 in - North 10.4 mph - -   Overcast
6:00 PM 59.0 °F 46.4 °F 63% 30.12 in 6.2 mi North 10.4 mph - N/A   Overcast
6:30 PM 59.0 °F 46.4 °F 63% 30.12 in 6.2 mi North 11.5 mph - N/A   Overcast
7:00 PM 55.4 °F 46.4 °F 72% 30.12 in 6.2 mi North 9.2 mph - N/A   Mostly Cloudy
7:30 PM 57.2 °F 46.4 °F 67% 30.15 in 6.2 mi North 11.5 mph - N/A   Overcast
8:00 PM 57.2 °F 46.4 °F 67% 30.15 in 6.2 mi NNW 11.5 mph - N/A   Mostly Cloudy
8:30 PM 55.4 °F 46.4 °F 72% 30.15 in 6.2 mi NNW 6.9 mph - N/A   Mostly Cloudy
9:00 PM 57 °F 47 °F 60% 30.17 in - NNW 11.5 mph - -   Overcast
9:00 PM 57.2 °F 46.4 °F 67% 30.15 in 6.2 mi NNW 11.5 mph - N/A   Mostly Cloudy
9:30 PM 55.4 °F 46.4 °F 72% 30.15 in 6.2 mi NNW 11.5 mph - N/A   Mostly Cloudy
10:00 PM 55.4 °F 46.4 °F 72% 30.15 in 6.2 mi NNW 11.5 mph - N/A   Mostly Cloudy
10:30 PM 55.4 °F 46.4 °F 72% 30.15 in 6.2 mi NNW 12.7 mph - N/A   Unknown
11:00 PM 55.4 °F 46.4 °F 72% 30.15 in 6.2 mi NNW 12.7 mph - N/A   Scattered Clouds
11:30 PM 55.4 °F 46.4 °F 72% 30.15 in 6.2 mi NNW 13.8 mph - N/A   Unknown